Theta_e
311 312 311 311 311 311 312 311 309 308 308 307 305 305 305 306 306 306 306 306 307 307 307 307 307 307 307 307 308 309 308 309 311 316 320 318 314 312 313 313 314 314 315 314 314 314 315 315 313 313 315 317 315 315 316 317 332 345 343 336 323 318 319 320 323 320 321 324 320 316 318 320 318 316 313 312 316 317 314 315 313 311 309 309 311 311 313 314
311 312 311 310 310 311 312 312 311 309 308 307 306 306 306 306 306 307 306 306 306 307 307 307 307 307 307 307 308 308 309 312 314 315 318 316 312 313 314 313 314 314 315 315 315 314 316 317 313 313 319 319 313 317 319 315 326 343 341 333 324 325 322 319 323 319 317 319 318 318 317 317 318 317 314 314 317 314 315 316 313 315 313 311 312 312 314 314
310 311 310 310 310 310 311 311 311 311 309 308 307 306 306 306 306 306 306 306 307 307 307 307 307 307 307 307 308 308 310 316 318 317 317 314 312 313 313 313 314 314 315 315 316 314 315 317 311 314 322 318 314 320 326 318 319 330 337 332 324 329 323 316 320 320 318 318 318 318 315 316 316 315 314 315 318 315 318 321 316 319 319 315 313 311 313 314
310 310 310 310 310 309 310 310 311 312 311 308 307 307 307 307 306 306 307 307 307 307 307 307 307 307 307 307 308 309 312 316 318 319 316 312 313 314 313 313 313 314 316 315 315 314 314 314 311 316 321 318 322 324 322 319 317 321 329 328 322 323 320 317 318 318 317 316 320 319 315 317 315 314 315 316 319 317 320 322 320 323 322 318 314 310 312 313
310 310 310 309 310 310 310 310 311 311 311 309 307 306 307 307 307 307 307 307 307 308 307 307 307 307 308 308 310 310 314 316 315 316 314 312 314 313 313 312 313 314 315 315 315 315 313 311 314 322 322 320 328 327 318 316 318 320 319 319 320 319 316 317 318 316 316 316 319 319 315 316 314 314 317 317 319 320 319 317 318 321 318 315 313 310 310 311
309 310 310 309 309 310 310 310 310 309 308 309 308 306 306 307 307 308 308 308 308 308 307 307 307 308 308 309 311 312 314 314 313 315 312 312 314 313 313 312 313 314 314 316 315 314 315 316 318 325 325 322 322 321 318 315 317 322 318 316 319 319 316 318 319 317 318 319 319 318 315 316 315 316 316 316 319 318 313 312 313 313 311 310 310 309 312 311
309 308 309 308 307 309 309 309 310 310 308 307 308 307 307 307 307 307 308 308 308 308 308 308 308 308 310 311 313 315 315 315 314 314 312 312 313 313 313 312 313 314 315 315 315 317 320 322 321 322 324 321 317 317 318 317 321 326 321 316 317 317 317 319 319 319 320 321 319 317 314 315 318 316 313 314 319 316 308 306 306 307 307 308 310 310 311 310
309 309 310 309 308 308 309 309 310 311 311 308 307 307 308 307 306 306 307 307 307 308 308 309 309 309 311 312 314 317 317 317 315 313 313 312 313 313 312 312 313 314 316 315 314 317 320 321 318 318 321 318 316 317 315 317 324 325 319 318 318 317 318 319 319 320 321 319 316 316 316 318 319 315 312 318 320 313 307 306 305 306 308 310 314 312 307 307
311 310 310 310 310 309 308 309 310 312 311 309 308 307 308 308 307 306 307 307 306 307 308 310 310 310 312 312 313 316 315 317 316 313 313 312 312 313 312 313 314 314 316 315 314 314 316 318 317 316 319 317 315 317 316 317 321 320 319 320 319 317 318 318 318 321 320 317 316 316 318 318 316 313 314 321 318 309 308 309 309 310 312 313 315 311 305 306
310 310 310 310 310 309 309 310 311 310 310 310 309 307 308 308 307 307 307 306 306 307 308 310 311 312 313 312 311 311 314 317 317 314 313 312 312 312 312 313 314 315 315 315 314 314 316 317 314 314 317 318 316 316 316 317 317 318 320 319 319 320 320 317 317 319 317 316 316 316 319 318 314 314 316 319 312 308 312 312 310 313 315 314 314 310 306 306
311 311 311 310 309 309 310 311 311 310 310 311 310 308 308 308 307 307 307 307 307 308 309 311 312 312 312 313 314 313 315 318 316 314 313 312 312 312 312 313 314 315 315 316 313 314 315 314 312 312 316 316 316 317 315 315 315 316 319 318 320 323 321 318 317 317 315 315 316 316 317 317 313 314 318 316 309 308 314 313 310 313 314 312 312 310 306 306
312 313 312 311 310 309 309 310 311 310 310 310 309 308 307 307 307 307 307 308 309 309 311 312 312 314 312 313 318 317 317 319 315 314 314 313 313 312 313 314 315 315 316 315 314 313 313 313 313 316 318 315 317 318 315 314 314 316 318 318 324 328 323 318 317 316 315 315 317 316 316 318 315 315 318 313 308 309 313 313 311 312 313 312 311 309 306 305
314 313 313 312 311 310 309 309 309 309 309 309 308 308 307 306 306 307 308 308 310 311 312 313 313 314 312 313 316 315 316 319 316 313 313 313 313 313 315 315 315 316 317 316 314 313 313 313 314 317 317 318 320 315 316 317 315 317 318 318 324 328 325 318 314 315 314 316 317 316 318 327 325 319 316 309 307 310 312 312 311 311 312 311 310 310 309 305
315 314 313 312 312 311 310 310 309 308 307 308 308 307 306 306 306 307 308 309 311 312 313 313 314 314 312 314 315 314 315 318 318 315 313 314 314 315 315 315 315 315 316 316 314 313 314 313 313 316 314 317 317 312 322 328 322 320 315 323 327 321 328 326 315 316 315 314 315 315 318 325 326 322 316 308 307 311 313 312 310 310 310 310 310 309 310 305
315 315 314 313 313 312 311 310 310 309 307 308 308 307 307 307 308 308 309 312 313 314 314 313 315 315 316 316 314 315 316 316 319 317 314 315 315 315 315 315 315 315 315 314 314 313 314 314 315 319 314 314 317 318 330 332 330 328 316 326 331 318 332 335 317 316 317 314 312 315 320 321 321 320 313 307 307 310 313 312 309 309 309 309 309 308 309 306
315 315 314 314 314 313 312 311 310 309 308 308 308 307 308 308 310 311 312 313 314 314 314 314 314 314 316 317 314 316 317 317 319 317 316 316 315 316 314 314 314 313 314 312 314 314 314 317 316 315 315 316 323 334 339 330 331 336 321 324 332 322 327 329 317 316 316 315 313 314 321 323 321 317 310 306 307 309 312 312 309 308 308 308 308 307 308 307
316 315 315 315 314 314 313 312 311 310 308 308 308 308 310 311 312 312 313 314 316 316 315 315 313 311 312 313 315 318 316 316 318 317 316 315 315 316 313 314 313 312 314 312 314 315 313 318 316 315 320 320 325 335 335 326 328 334 323 321 331 327 322 324 324 318 312 314 315 314 316 320 320 316 311 308 307 309 311 312 310 308 307 306 306 307 307 307
316 316 315 315 314 314 313 312 312 310 309 309 308 311 313 313 314 313 314 315 316 313 312 313 311 310 311 311 315 318 316 316 318 316 316 316 316 315 314 313 311 312 316 315 314 315 315 320 322 323 325 321 322 328 326 324 329 332 326 325 328 324 320 324 326 318 312 314 316 316 316 317 316 315 315 312 307 309 311 310 309 307 307 307 306 306 306 306
317 316 316 315 315 314 313 313 312 311 309 309 311 314 312 312 314 314 315 315 314 311 311 314 311 311 313 313 315 316 315 316 317 316 315 317 315 313 314 312 314 317 318 319 315 317 321 323 325 324 324 321 321 324 324 325 329 333 334 333 329 324 323 325 326 322 316 314 317 317 316 317 316 315 316 314 308 308 310 309 308 308 307 306 306 306 306 306
318 317 316 316 315 314 313 312 312 311 309 310 314 313 310 313 313 311 316 318 317 313 314 316 314 314 315 317 318 316 316 316 315 317 316 316 314 314 314 312 318 321 319 325 320 316 322 324 324 325 324 323 321 321 322 324 325 326 329 329 326 326 325 324 325 323 315 314 321 319 315 316 315 316 315 313 310 309 310 309 308 308 307 307 306 306 306 306
319 318 317 316 315 314 313 313 313 312 310 311 314 313 311 316 311 310 319 321 316 312 314 317 313 313 314 315 317 315 318 317 314 316 315 314 314 315 316 315 319 320 320 326 321 315 320 323 325 326 322 320 320 320 318 321 321 320 322 323 324 325 324 321 319 319 315 315 323 320 316 316 314 314 313 313 313 313 312 311 310 309 307 307 307 306 306 306
319 319 317 316 316 315 313 313 313 311 310 311 314 314 314 315 313 311 315 318 316 313 314 315 313 315 315 313 316 315 318 321 318 317 316 314 314 315 318 318 321 322 320 321 320 319 321 323 323 321 319 318 319 317 316 318 318 319 321 320 323 324 322 322 319 317 314 315 324 323 318 317 315 314 313 313 313 312 311 311 311 311 309 308 307 306 306 307
320 319 318 317 316 315 314 313 312 311 311 311 312 313 314 316 316 313 312 315 320 317 316 316 315 318 318 314 315 315 318 323 322 320 316 314 316 317 317 319 320 322 320 319 323 324 324 327 323 317 318 320 318 318 317 317 318 320 321 319 323 324 322 324 323 318 316 316 321 322 318 316 315 315 315 314 313 312 311 311 310 310 310 309 308 307 306 307
321 319 318 318 316 315 314 313 312 311 311 312 311 313 316 317 316 314 314 315 318 320 318 315 313 316 318 314 314 317 318 320 321 319 316 314 316 317 317 319 320 321 319 319 322 323 323 324 318 316 319 319 320 321 320 320 322 323 322 320 322 323 322 324 324 322 323 322 319 320 322 323 323 321 319 318 317 315 313 313 312 311 310 310 309 308 307 306
322 320 319 318 317 315 314 312 312 312 312 312 311 312 315 318 315 314 315 315 315 318 316 313 314 317 315 313 314 318 318 318 321 318 314 314 316 316 316 318 320 321 319 317 318 319 321 319 318 320 319 318 320 322 323 324 324 326 325 321 320 322 322 322 321 321 326 330 322 319 326 334 337 332 326 326 326 323 317 315 315 312 310 310 310 309 308 307
322 321 319 318 317 315 313 312 312 311 313 312 310 311 315 317 316 314 315 317 314 315 315 313 316 317 313 314 316 317 317 318 318 316 314 314 314 316 317 317 317 319 318 318 318 319 320 317 321 328 322 320 322 322 324 323 320 325 327 323 320 319 320 321 321 322 328 332 321 317 326 332 330 327 329 332 332 329 324 319 317 314 312 311 309 309 308 307
322 321 320 319 317 316 313 312 312 312 314 313 309 311 316 317 316 313 312 316 313 314 318 314 312 313 315 315 314 313 314 316 316 314 314 314 314 315 317 317 316 317 317 318 318 319 320 318 320 325 325 324 322 322 324 319 322 329 325 323 322 319 320 321 321 323 327 327 322 322 325 325 324 323 325 327 326 326 323 320 319 316 314 312 309 308 308 306
321 320 319 319 317 316 314 312 312 312 313 312 309 313 318 316 315 312 310 312 311 313 318 316 311 312 315 313 312 314 315 316 318 317 313 312 314 315 317 319 317 318 318 318 318 317 319 322 321 321 324 324 324 329 326 318 323 328 320 320 322 321 324 325 324 325 324 323 328 329 323 322 328 330 327 322 323 327 325 322 321 319 318 315 311 308 307 306
321 320 320 319 318 317 314 312 312 312 311 311 311 314 317 315 313 313 313 311 313 316 315 315 314 313 315 313 312 317 317 317 319 316 313 312 313 315 317 318 317 318 317 316 318 318 318 320 319 319 322 322 326 330 323 319 322 320 316 320 323 323 327 328 329 329 326 324 327 329 324 324 328 331 329 323 325 329 325 322 321 321 323 318 312 308 306 305
320 320 319 319 318 316 314 313 312 312 311 311 312 315 316 315 311 310 311 311 315 320 315 313 316 317 317 315 315 317 318 319 317 315 316 315 314 315 316 315 318 321 319 317 319 320 317 314 314 319 321 321 325 322 316 319 320 316 322 329 329 329 330 331 330 327 328 328 325 327 327 325 326 332 331 325 329 332 327 325 326 328 328 321 313 308 306 305
320 320 319 318 318 316 315 314 313 313 312 311 313 315 315 315 313 310 310 310 310 316 316 315 316 317 316 316 317 317 318 319 317 316 318 317 316 318 317 316 320 324 322 321 322 320 318 316 317 320 319 320 324 321 316 317 316 320 333 334 331 333 330 329 330 327 329 329 325 326 324 321 326 331 330 325 326 327 325 325 329 333 334 328 315 307 306 305
319 319 319 318 318 316 315 315 314 313 312 312 314 315 315 315 316 314 312 310 311 317 319 319 318 317 317 317 317 317 318 320 317 317 319 318 317 318 317 318 320 321 321 321 322 321 320 322 323 319 316 319 325 325 320 317 316 323 332 329 327 331 329 329 330 328 329 326 320 319 320 322 324 325 326 325 324 324 320 319 322 326 331 332 320 307 305 304
318 319 319 318 318 317 316 315 315 314 313 313 315 317 316 315 316 316 314 313 316 319 320 321 320 317 317 318 318 316 317 320 318 317 318 318 318 317 317 320 320 321 324 321 319 322 323 323 322 318 317 320 323 323 322 321 320 322 326 327 328 329 331 335 332 327 327 324 317 314 320 324 324 324 324 322 321 323 321 318 318 318 321 326 321 310 305 304
317 318 318 318 318 317 316 316 315 314 313 314 317 317 316 316 316 316 315 313 316 321 322 321 319 316 317 320 321 317 317 320 318 318 319 318 320 319 319 320 318 322 328 322 319 323 323 322 321 319 320 321 319 320 325 326 321 320 323 325 327 330 334 336 334 330 330 328 321 315 321 329 331 331 326 321 321 324 323 320 318 316 314 314 313 309 305 303
316 317 318 317 317 317 316 316 316 313 314 315 317 316 315 316 317 318 316 313 317 326 322 318 319 318 318 321 322 318 317 320 317 318 320 319 320 319 318 319 316 321 327 321 320 322 320 324 325 320 319 320 318 320 325 324 321 320 322 324 325 328 328 326 326 326 325 327 325 320 324 330 329 326 322 320 323 324 321 319 319 319 313 310 311 310 305 302
316 316 317 317 317 317 316 316 315 313 315 317 317 316 315 316 317 319 317 312 316 325 321 318 322 322 320 321 321 318 318 321 319 319 320 319 319 319 318 319 316 317 319 316 322 324 322 326 322 315 317 318 318 321 322 322 323 321 320 323 323 321 322 323 323 319 319 323 326 324 326 328 325 324 322 319 322 324 321 321 323 319 314 313 314 310 305 302
315 316 317 317 317 317 316 316 314 313 316 317 317 317 315 316 317 318 319 314 316 321 320 320 322 322 321 320 321 320 319 321 319 319 321 319 320 320 318 319 318 316 316 317 323 325 324 326 320 316 319 316 314 320 321 318 320 322 324 324 319 318 324 328 327 325 326 328 327 324 326 327 326 327 324 319 320 322 321 322 321 317 317 317 313 307 304 302
315 316 317 317 317 317 316 315 314 314 317 317 316 317 316 316 316 317 318 316 317 320 319 319 319 320 321 320 321 320 318 321 320 319 321 319 320 322 318 319 320 317 316 317 321 324 322 323 322 317 319 316 313 319 323 316 315 321 326 323 322 327 328 326 327 330 330 329 329 326 324 323 323 325 324 321 323 326 323 320 319 319 320 317 311 307 305 302
315 316 317 317 316 317 316 315 313 314 318 317 315 316 317 316 315 317 318 315 315 318 317 318 318 319 321 320 321 320 318 320 319 319 321 319 320 322 317 318 320 317 316 316 319 325 322 321 324 316 314 316 316 319 324 320 315 317 319 318 320 326 327 325 326 327 328 329 330 329 325 323 323 324 325 323 323 327 327 325 325 326 322 315 310 307 304 302
314 316 318 317 316 317 316 314 314 316 319 318 315 315 316 316 315 316 318 315 315 317 316 316 318 319 321 321 320 321 319 319 319 318 320 319 320 321 317 317 320 318 316 315 317 323 322 319 324 318 312 317 321 321 322 321 318 318 320 320 319 320 322 324 324 323 327 330 330 330 327 325 326 323 324 325 323 324 327 329 330 329 321 315 311 308 304 302
314 316 317 316 316 317 315 314 315 317 319 319 316 315 315 316 316 315 315 314 316 319 317 316 317 318 320 320 320 320 320 319 319 318 319 318 319 321 318 317 321 319 317 317 317 320 321 322 326 323 318 321 323 320 317 318 319 319 320 321 320 319 321 324 323 322 324 326 328 329 327 326 329 325 321 326 328 325 323 323 326 323 317 318 316 308 305 302
314 315 316 316 316 315 315 316 316 317 318 317 316 315 314 316 317 316 315 314 315 318 318 318 319 317 319 320 319 320 320 320 319 318 319 319 317 319 319 317 319 318 317 319 318 318 323 327 327 325 321 321 320 315 313 316 318 317 319 322 321 319 321 325 326 324 323 323 324 325 325 325 326 323 322 326 328 324 319 318 322 320 315 318 317 308 303 302
312 314 315 315 316 315 315 317 317 317 317 316 314 314 313 315 317 316 315 315 314 315 316 318 320 318 318 320 320 320 320 320 319 318 319 319 317 319 321 318 317 317 317 319 318 318 322 325 324 324 324 322 320 316 314 314 315 316 319 322 322 319 320 324 326 325 325 326 324 324 325 324 321 320 320 322 321 320 319 317 321 324 320 317 314 309 304 302
312 314 314 314 314 315 316 318 318 317 317 316 314 313 313 313 316 316 316 315 314 315 316 316 318 319 318 320 321 320 320 321 320 319 319 320 320 320 321 320 317 317 318 319 320 318 320 324 325 325 327 326 324 322 318 314 315 319 322 321 320 320 320 321 323 323 325 326 324 325 326 323 321 320 318 318 318 319 320 318 319 326 326 319 313 308 304 302
311 312 313 314 313 314 317 319 319 318 317 316 314 313 313 313 314 315 316 315 315 316 316 315 318 320 320 319 319 319 320 320 321 320 319 321 321 319 320 321 318 316 317 319 319 317 320 324 323 323 325 326 325 325 324 319 316 319 322 320 318 319 320 320 321 322 324 324 323 325 325 322 321 321 318 317 319 320 322 322 320 322 322 316 312 309 305 302
309 310 311 314 314 314 316 318 318 317 316 315 314 313 312 312 313 314 315 316 316 315 315 315 316 319 319 319 319 320 321 320 320 322 321 321 322 320 319 319 318 317 318 319 319 320 324 325 321 321 324 323 323 325 325 321 319 319 321 320 318 318 318 319 321 323 324 324 323 323 323 323 323 322 320 320 323 325 326 327 326 325 322 316 312 310 305 302
308 308 311 314 315 315 316 316 317 317 316 315 314 313 312 312 313 314 314 315 316 315 314 314 315 317 319 319 319 320 321 320 320 322 321 320 321 320 317 316 317 318 318 319 319 323 327 325 321 322 323 321 323 325 323 321 321 321 320 320 319 318 318 319 321 322 324 325 325 322 322 324 322 321 322 323 324 328 330 331 331 330 327 320 313 309 306 303
307 308 310 313 314 314 316 316 316 317 316 315 314 314 314 312 312 313 314 314 315 316 316 316 316 317 318 319 320 320 321 321 321 321 320 320 320 319 316 315 316 317 318 318 318 321 326 324 322 323 323 321 322 323 322 322 322 320 320 320 319 318 318 319 320 320 322 324 324 323 324 325 322 320 321 321 322 323 324 326 325 322 323 320 313 311 310 305
306 308 309 310 311 312 314 314 314 316 317 316 315 315 315 314 313 313 313 314 314 315 316 317 317 317 317 318 319 320 321 321 321 320 320 319 321 322 320 318 318 317 317 319 319 320 323 323 323 324 323 322 322 322 322 323 322 320 320 319 319 318 318 318 319 319 320 321 322 322 324 324 321 319 321 323 323 320 318 320 320 319 323 323 317 315 313 307
305 307 308 308 309 310 310 310 311 312 314 315 316 315 314 315 314 313 313 315 315 315 316 316 316 317 317 317 318 319 319 320 321 321 320 319 320 321 320 321 322 318 316 318 319 318 319 322 325 324 323 323 322 322 323 323 322 321 321 319 319 318 318 318 318 318 319 320 320 320 323 322 320 320 323 325 323 318 316 319 319 318 321 322 319 316 313 309
304 305 305 306 308 308 309 310 310 311 311 313 314 314 314 315 314 314 314 314 314 315 315 316 316 317 316 316 317 317 317 318 319 320 320 320 320 319 318 321 324 321 316 317 319 316 317 322 324 322 323 324 322 323 323 321 320 320 321 321 319 318 318 317 318 318 319 319 320 321 321 320 320 321 322 323 322 320 320 321 318 317 317 318 318 318 315 311
303 304 303 304 306 307 308 309 310 310 311 312 312 311 312 314 314 315 316 315 315 315 315 315 316 317 317 317 317 316 317 318 319 321 322 321 320 321 321 321 321 319 317 317 318 317 317 320 322 322 324 323 323 324 322 320 321 322 322 321 320 319 319 317 317 318 317 318 320 321 320 319 319 320 320 321 323 323 321 320 318 317 316 315 315 316 314 311
Wind_Speed
5 4 3 3 2 1 1 1 0 1 1 2 2 3 3 3 3 3 3 3 3 3 3 3 4 4 6 7 7 8 8 7 3 2 2 2 2 3 3 3 4 5 5 5 7 3 3 6 8 11 5 3 4 2 3 2 3 5 4 4 3 3 3 5 7 7 4 4 5 4 3 7 4 2 2 2 7 4 2 4 3 5 4 1 1 3 8 14
5 4 4 3 3 2 2 1 1 1 1 2 2 2 3 3 3 3 3 3 3 3 3 3 4 4 5 6 7 8 8 6 3 2 3 4 5 5 4 4 5 5 6 7 9 7 4 5 8 9 6 3 3 3 3 2 3 4 3 4 3 5 4 5 7 6 3 3 5 3 3 5 6 4 3 1 2 2 2 2 4 4 3 1 2 4 8 14
5 4 4 3 3 2 2 1 1 1 1 1 1 2 2 3 3 3 3 3 3 3 3 3 4 5 5 6 7 8 8 5 2 2 4 6 7 6 4 4 5 6 7 7 7 7 3 3 4 5 5 3 2 3 4 4 2 2 4 4 4 6 3 4 6 7 5 4 6 3 2 2 3 4 2 3 3 0 3 4 1 3 6 5 3 4 9 14
5 4 3 3 3 2 2 2 1 0 1 1 1 1 2 2 2 3 2 3 2 2 2 3 4 5 5 6 7 7 7 4 1 2 6 8 8 6 4 4 6 6 7 7 6 5 3 1 2 4 4 3 4 4 3 3 2 2 4 3 5 4 2 3 6 5 4 5 7 4 4 2 3 2 2 5 5 3 7 7 7 9 10 9 6 5 10 13
5 3 3 3 2 2 1 2 2 1 2 2 1 2 2 2 2 2 2 2 2 2 2 3 4 4 5 6 6 6 5 4 1 3 7 10 9 6 4 4 5 5 6 6 4 4 3 3 6 6 5 2 5 5 2 3 2 3 2 3 5 4 2 3 5 3 3 5 5 5 4 3 2 1 3 8 6 6 6 7 8 8 10 11 9 8 9 11
4 3 3 2 2 1 1 1 0 0 1 1 2 2 2 2 1 1 1 1 1 1 2 3 3 4 5 5 5 4 3 1 3 3 8 10 9 6 3 2 4 5 6 4 4 4 3 5 7 4 4 3 3 3 1 4 3 3 1 1 3 3 2 2 3 3 5 7 5 5 3 2 2 2 2 8 8 6 4 5 6 6 10 13 11 10 8 9
4 3 3 2 2 1 1 1 1 2 2 1 1 2 2 2 1 1 1 1 1 1 2 3 3 4 4 4 4 3 3 2 4 5 9 10 9 6 3 1 3 5 5 4 5 4 4 7 6 3 4 3 0 2 1 5 5 5 1 2 1 3 3 2 2 3 5 7 6 4 3 3 5 3 1 5 8 3 3 2 4 8 14 15 10 8 8 9
4 3 3 2 2 2 1 0 1 2 2 3 2 1 1 1 2 1 1 0 1 1 2 2 3 3 4 3 1 4 2 3 3 8 10 10 9 7 3 1 3 4 3 5 5 3 4 6 3 3 4 1 2 2 2 4 5 5 2 2 1 1 3 1 2 1 4 4 3 5 3 4 6 3 0 7 7 0 3 5 8 10 12 10 8 7 7 8
6 5 4 3 2 2 2 1 1 1 1 2 3 3 2 1 1 1 0 1 0 1 1 2 4 3 3 2 5 3 3 3 4 10 10 9 8 6 4 1 3 3 3 5 4 4 3 2 3 3 4 2 2 2 1 2 1 1 4 2 1 1 5 1 2 2 3 2 3 5 3 5 2 1 4 6 5 3 5 6 6 8 8 6 6 7 8 8
6 5 4 4 3 3 2 1 1 2 2 2 3 3 3 2 0 0 1 1 1 1 1 2 3 3 2 2 6 1 4 2 5 10 10 9 8 6 4 2 3 2 2 3 4 5 4 4 4 4 5 3 2 2 1 2 2 2 4 3 1 2 5 1 3 4 1 1 4 6 5 4 3 1 4 4 5 5 7 6 4 7 7 6 5 6 8 9
4 3 4 4 4 4 3 2 2 2 2 3 4 3 3 3 1 1 1 1 1 1 0 1 2 2 1 3 6 3 3 1 6 9 9 9 6 5 3 2 3 1 1 3 4 5 4 5 5 4 2 1 2 2 2 1 2 2 2 1 2 5 5 2 2 4 1 2 5 7 4 3 3 1 6 4 5 6 7 7 4 6 6 6 5 5 7 9
5 4 5 5 5 6 4 4 3 3 3 3 4 4 3 3 2 2 2 2 2 2 1 0 1 1 1 3 3 5 3 1 5 8 9 8 6 5 2 2 2 2 1 2 4 4 4 2 5 5 0 2 2 2 1 1 2 1 2 1 5 8 5 3 2 3 3 2 5 6 1 4 3 6 6 2 5 5 7 7 5 6 5 5 6 5 6 9
5 5 5 5 6 7 7 6 6 6 5 5 5 3 3 4 3 2 3 2 3 3 2 1 0 1 2 0 3 6 5 3 5 8 8 7 5 4 2 1 0 2 2 3 4 5 5 1 4 5 2 4 2 0 2 3 3 0 3 2 4 7 5 4 1 2 4 3 4 4 2 6 8 10 5 2 7 7 6 7 6 6 5 5 5 5 5 8
6 6 6 6 6 7 7 8 9 8 8 7 5 2 3 3 3 3 4 3 3 3 2 2 1 2 3 2 4 4 6 5 5 7 8 8 6 4 2 1 1 2 3 4 4 5 5 3 6 6 2 3 2 1 4 5 3 1 1 2 2 2 4 6 1 4 5 2 2 4 3 7 9 10 5 5 8 9 8 8 7 6 6 5 5 5 6 8
7 7 6 6 6 7 7 8 8 8 7 5 4 3 3 2 2 3 3 3 3 2 2 3 2 3 2 3 4 3 6 6 6 8 8 8 6 4 3 2 2 3 3 3 5 5 5 4 6 5 0 2 3 4 4 4 3 3 1 3 3 1 5 8 3 5 5 0 1 4 3 7 9 9 4 5 6 7 9 8 7 7 7 7 6 6 6 6
8 8 7 7 6 7 7 7 8 7 5 3 3 3 2 1 2 2 3 4 4 3 3 2 2 4 2 2 2 3 5 5 6 8 9 8 6 3 4 5 3 3 4 4 5 5 6 6 4 2 1 2 5 5 3 4 4 4 0 3 2 2 3 6 3 3 2 1 0 2 3 4 5 5 3 4 6 6 7 7 8 8 8 8 6 6 6 5
9 9 8 8 7 7 7 7 8 6 3 2 2 1 1 1 2 2 4 6 7 5 4 3 3 3 0 2 2 4 4 6 7 10 10 9 7 5 6 5 3 4 5 5 4 3 5 5 1 1 2 3 3 4 3 2 4 4 1 2 4 3 2 3 4 3 1 3 3 3 4 7 7 3 0 4 6 6 8 9 9 9 8 7 6 6 7 6
10 10 9 9 8 7 7 7 7 5 3 3 1 3 4 4 3 4 7 9 9 7 4 1 2 1 3 3 3 3 3 6 8 10 12 10 7 7 6 4 4 5 5 4 3 3 3 4 2 1 3 3 2 5 3 5 4 3 2 1 3 3 2 3 4 2 3 1 3 4 4 11 13 8 4 6 6 8 10 10 8 8 8 8 8 8 8 8
11 11 10 9 8 8 7 7 6 4 2 2 4 7 7 5 3 4 6 6 5 3 1 3 3 3 4 4 2 3 5 7 9 10 11 9 8 7 5 5 5 6 4 1 1 2 1 3 4 2 1 2 4 6 8 8 6 6 5 4 3 4 3 5 5 5 4 3 4 7 7 10 12 12 8 6 7 8 10 9 7 8 8 8 9 9 9 10
13 12 11 9 8 8 8 7 6 4 3 4 7 8 5 3 3 1 2 2 4 3 2 5 6 4 1 2 2 7 7 6 4 6 9 10 11 9 4 4 6 5 3 4 2 1 3 3 2 5 7 8 9 10 7 5 6 5 4 3 4 4 5 5 4 6 2 4 6 8 9 11 11 12 11 5 6 8 10 10 10 10 9 10 11 11 11 11
14 13 12 10 9 9 8 7 6 4 4 6 8 5 2 4 3 1 3 4 9 7 3 2 2 2 1 1 6 9 6 3 2 3 10 10 11 9 1 2 4 1 2 4 3 2 4 4 7 10 10 8 8 8 5 5 5 3 3 2 3 4 6 7 4 5 1 3 6 5 6 11 11 12 11 3 6 10 13 13 14 14 12 11 12 13 11 7
17 15 13 11 10 9 8 8 7 5 6 7 8 4 2 3 3 1 3 1 9 11 8 3 2 4 4 2 8 7 3 2 1 3 10 9 7 6 2 3 5 4 2 3 3 1 2 4 12 10 5 6 4 5 5 4 2 1 2 1 3 3 4 6 4 4 0 4 5 4 4 10 12 11 11 8 9 11 13 15 16 14 13 13 12 12 11 8
19 17 15 13 11 9 7 7 6 6 9 9 9 6 2 2 4 2 3 1 5 5 6 6 5 5 4 2 8 8 2 4 4 6 11 9 4 4 4 5 5 4 3 5 5 4 3 6 11 6 7 7 3 4 6 3 1 3 3 2 3 3 2 4 4 3 1 2 2 4 4 8 11 9 10 12 11 10 11 13 13 12 13 14 13 12 12 12
21 19 17 15 13 9 7 7 6 8 12 12 14 12 5 5 5 3 1 0 4 4 4 8 6 6 7 4 10 12 3 4 5 6 13 12 5 3 5 5 5 5 5 9 8 6 6 6 3 6 8 8 5 4 7 5 3 5 6 6 5 4 6 6 4 4 3 3 2 3 6 7 8 8 9 8 5 8 11 10 12 13 12 11 9 10 12 13
24 21 19 17 14 11 8 7 8 12 12 11 17 18 10 8 7 5 2 2 3 4 3 5 4 6 11 8 11 11 2 3 5 8 16 16 9 4 3 3 4 5 8 7 6 5 8 5 4 7 5 7 7 4 6 7 4 5 5 10 10 8 8 6 3 5 4 5 3 3 4 6 5 6 8 5 4 7 9 8 13 15 11 9 9 10 10 10
28 25 21 19 16 15 11 6 10 13 10 11 15 15 13 11 8 6 4 3 4 4 1 4 4 8 12 9 9 7 2 5 5 9 18 17 10 5 3 2 2 4 7 4 3 3 5 4 5 7 6 7 6 4 6 8 5 4 5 9 11 9 6 5 2 2 1 5 3 2 2 6 7 7 7 5 6 10 9 9 13 12 8 9 11 9 9 9
31 28 25 22 20 21 13 5 10 12 7 9 11 15 16 13 10 7 4 3 5 3 4 2 2 7 10 9 12 9 3 5 2 8 13 14 9 3 3 5 2 3 4 4 2 3 4 5 4 6 6 6 6 4 6 8 7 4 5 6 8 8 7 6 5 4 3 3 4 1 2 5 8 7 5 3 7 11 12 13 13 11 9 10 10 9 10 11
33 30 27 25 24 27 18 8 12 15 9 4 7 20 19 13 11 6 4 1 4 2 4 2 1 4 3 6 13 8 2 2 5 4 4 9 8 2 2 8 6 7 6 6 5 4 4 7 8 8 5 5 6 5 8 10 6 5 3 6 6 6 6 4 5 3 1 2 5 4 1 3 7 5 4 3 4 10 13 15 15 12 9 10 10 10 10 10
34 32 30 28 26 28 23 13 11 15 13 4 9 22 19 13 8 5 4 3 2 1 2 2 2 1 3 5 7 3 2 2 2 2 2 5 5 2 3 7 5 7 5 5 6 3 2 6 8 8 6 6 5 2 8 12 5 3 5 7 6 5 5 4 4 3 2 1 7 6 3 3 7 4 1 2 2 9 12 12 11 8 7 8 10 9 9 8
31 33 33 30 28 29 24 17 15 14 10 6 13 22 17 9 4 4 3 4 1 1 1 2 2 2 6 9 4 0 2 1 1 1 3 1 1 4 1 3 5 5 2 4 5 3 1 1 2 4 4 5 4 2 3 7 6 6 6 6 7 6 5 3 2 4 1 4 8 8 9 7 6 3 4 4 5 7 8 8 8 6 6 7 7 7 8 7
26 33 35 32 32 33 22 16 23 20 9 7 14 18 11 2 2 5 7 2 1 2 2 2 2 4 11 13 6 2 2 1 1 5 4 2 2 3 0 1 4 3 1 5 4 3 3 1 2 2 2 4 7 5 3 2 4 5 4 5 3 4 4 4 4 4 1 6 5 5 6 8 8 6 4 6 7 7 8 8 8 7 7 6 6 6 7 7
20 30 37 36 34 36 26 18 26 25 11 9 15 11 5 2 0 5 4 2 1 4 5 4 4 7 11 10 6 6 4 1 2 6 6 4 5 6 6 6 5 3 2 7 4 2 2 4 3 2 1 4 6 4 4 4 2 4 4 6 4 2 3 3 3 0 4 7 3 1 1 4 9 8 7 9 11 11 10 8 8 8 8 6 5 6 6 7
16 25 35 39 36 38 33 24 25 26 17 15 13 2 0 5 6 8 7 3 2 2 3 3 3 7 11 8 4 4 3 1 4 4 3 4 6 7 7 6 6 4 3 6 3 1 3 5 2 1 2 3 8 7 3 1 4 5 6 6 5 2 0 3 4 2 4 6 3 1 1 3 5 6 10 15 16 13 9 7 8 8 8 7 6 6 7 8
13 19 31 41 40 40 38 28 24 26 22 16 9 2 3 6 7 10 13 12 5 2 2 3 6 6 8 5 4 6 4 3 6 5 2 5 5 6 6 7 7 3 3 4 3 5 6 6 5 7 3 6 10 9 6 6 6 5 4 5 5 6 4 4 4 4 5 4 4 2 2 4 3 3 8 11 10 9 8 7 6 7 8 6 4 6 7 8
13 16 26 36 38 38 38 31 27 29 24 13 6 7 9 8 6 8 11 11 4 3 4 2 7 7 5 2 2 6 5 3 5 5 4 6 7 7 7 8 10 6 4 4 2 3 5 7 6 3 1 9 11 5 5 8 3 3 2 4 4 6 5 3 3 4 2 3 4 2 4 5 4 6 8 7 7 8 8 7 6 8 6 3 5 6 7 8
13 14 20 30 36 38 38 33 31 33 23 10 6 8 10 10 8 6 6 8 7 4 5 2 4 5 6 3 2 6 3 1 5 5 3 5 5 7 8 8 12 12 10 7 3 2 3 5 4 2 2 5 7 4 4 3 3 2 3 4 4 4 6 2 3 1 3 3 5 3 5 5 3 8 9 7 9 10 8 7 9 8 4 3 7 7 7 8
13 12 14 25 34 39 40 36 36 33 18 8 9 10 10 10 7 5 4 5 7 8 8 4 3 6 7 5 4 8 5 2 5 6 4 4 3 7 9 6 8 15 15 8 2 3 5 3 4 2 1 3 1 4 4 3 3 6 4 6 3 2 2 2 2 3 3 4 5 2 6 5 2 6 5 1 8 12 11 11 10 7 5 7 8 6 7 8
12 9 10 23 33 37 39 40 38 27 10 6 10 10 9 11 9 6 4 4 7 8 8 8 6 6 7 7 6 8 8 4 6 7 4 4 5 8 12 6 5 15 17 8 2 3 4 2 4 1 3 3 3 4 2 5 2 5 4 5 4 2 1 2 2 2 1 4 5 3 4 4 6 6 2 3 10 11 12 11 9 9 10 10 8 7 8 7
10 6 6 18 29 34 39 40 32 16 5 7 10 9 9 13 12 6 3 4 7 8 10 10 7 4 5 8 6 7 9 8 9 7 5 5 5 7 13 10 6 11 14 11 6 3 3 3 4 1 1 1 2 2 4 1 2 3 2 3 2 2 4 3 3 3 3 3 4 3 3 4 7 7 7 10 11 10 10 9 8 12 13 9 6 6 7 8
6 4 3 8 21 34 40 33 19 8 7 9 10 9 10 11 9 6 7 6 4 6 9 11 10 6 6 8 7 6 8 8 9 8 6 7 6 5 9 12 6 5 9 11 8 2 2 4 4 2 3 1 2 4 8 10 6 3 4 5 3 1 2 1 1 2 4 2 2 3 7 6 4 5 9 11 10 10 10 9 9 12 9 4 5 7 7 8
3 5 3 6 23 38 35 19 7 7 8 8 10 11 9 5 3 7 12 8 2 2 4 6 9 8 7 8 7 6 7 6 8 7 5 7 8 6 6 10 9 7 7 7 8 6 3 4 4 2 1 4 5 4 5 9 8 7 7 8 9 6 4 3 3 2 3 2 4 3 8 10 4 4 7 8 8 9 9 9 9 10 8 5 6 8 9 9
4 5 3 12 33 38 22 6 6 7 7 9 10 9 5 1 1 6 10 8 4 4 1 2 7 8 7 7 7 6 7 6 8 8 5 8 11 8 6 9 12 13 11 8 11 10 4 3 3 3 4 6 5 4 1 3 2 3 4 5 7 6 6 6 5 4 3 2 3 4 5 10 3 4 6 6 5 5 5 6 7 8 8 6 6 7 8 8
4 5 2 15 40 37 12 5 9 7 7 8 9 6 2 1 1 3 6 9 6 3 3 3 4 8 7 6 7 7 8 6 9 10 8 8 10 7 6 9 12 14 10 6 7 5 3 3 4 2 2 3 4 4 2 2 2 1 1 2 6 7 8 6 5 4 4 5 4 4 6 9 2 2 4 3 4 4 4 5 6 6 7 6 6 6 6 7
3 4 3 11 34 31 9 5 9 8 9 10 9 8 5 5 3 4 8 12 10 6 5 5 4 7 7 5 6 9 11 7 8 12 11 7 7 6 9 12 13 12 9 6 7 6 4 4 5 2 1 3 4 3 2 2 3 3 3 4 8 12 9 3 1 2 3 8 9 6 9 9 2 4 3 2 4 5 6 6 5 6 7 6 5 5 6 6
2 3 1 6 19 17 7 7 9 8 10 12 12 12 9 6 5 8 9 10 10 8 6 5 4 3 2 3 4 7 11 10 7 9 10 7 4 2 8 14 13 12 9 7 9 9 6 6 7 7 8 8 8 7 6 5 4 2 5 8 10 12 12 7 3 4 7 8 10 9 12 7 1 4 5 4 4 5 7 6 4 6 8 6 4 5 6 6
2 3 2 3 7 9 7 7 8 7 8 10 9 10 12 9 6 8 8 6 8 9 6 5 2 3 2 4 4 4 9 12 10 6 7 8 5 1 5 11 13 14 10 6 7 7 3 4 10 12 13 15 13 7 4 9 8 7 11 13 13 13 14 11 6 8 9 4 5 13 17 11 7 5 6 6 6 6 7 5 5 7 7 6 5 5 5 6
3 4 4 3 3 6 8 8 8 7 7 9 7 6 12 13 8 7 7 7 8 10 9 7 5 6 7 9 9 8 9 11 10 8 8 8 4 1 1 5 10 14 11 5 5 5 3 4 12 16 18 20 17 8 9 13 13 15 15 15 16 15 14 12 13 15 8 4 9 18 13 14 17 11 9 9 7 5 7 8 8 7 6 5 5 5 5 6
4 3 3 3 2 5 7 7 9 10 11 11 7 6 12 15 11 7 7 9 10 10 8 8 10 11 12 14 13 10 10 10 10 11 10 6 3 1 1 1 5 8 7 4 4 4 3 5 10 14 18 21 18 9 11 12 11 14 16 17 18 17 17 18 21 22 12 8 18 18 10 13 22 16 12 11 8 9 11 9 6 4 4 5 5 6 7 7
4 3 3 3 3 4 4 2 4 10 14 13 9 9 12 14 15 12 9 8 10 11 10 10 14 17 18 17 13 11 12 11 11 13 12 8 5 4 3 3 3 3 6 6 4 3 3 6 9 13 15 19 19 12 10 11 9 9 13 16 17 18 21 23 25 24 18 15 22 19 11 17 21 13 10 9 9 10 7 2 3 5 6 7 7 8 8 9
3 2 2 2 2 4 5 3 3 6 8 10 10 12 14 15 17 16 12 10 10 11 14 18 22 21 20 19 15 14 15 13 14 15 12 10 8 5 5 5 3 2 4 6 4 2 5 6 6 7 8 14 19 15 10 11 11 11 10 11 14 18 22 24 23 20 16 17 23 21 17 19 14 6 6 7 7 6 4 4 8 9 8 7 8 8 9 9
8 6 2 1 1 4 5 5 5 5 4 5 6 7 11 17 18 15 13 15 16 13 15 23 26 19 15 15 15 17 18 17 19 16 9 10 10 7 6 6 6 6 7 7 4 4 6 4 2 4 6 12 18 17 12 8 7 10 12 13 18 20 19 19 18 17 17 18 21 18 15 18 11 4 4 6 7 7 9 10 10 9 8 9 9 10 11 11
10 8 4 1 2 5 4 4 4 5 4 4 5 5 7 10 13 12 9 9 14 15 13 19 22 13 9 14 19 22 21 17 15 10 5 7 7 5 5 4 4 6 8 8 5 4 7 6 3 5 8 12 14 11 8 5 3 9 15 22 25 22 16 14 15 18 19 17 16 14 15 20 16 6 4 6 7 10 12 11 10 10 10 10 11 12 11 12
Wind_Direction
154 154 169 166 157 140 93 18 332 181 191 220 221 203 198 199 206 212 219 224 230 249 263 280 306 319 321 322 318 325 330 327 317 231 200 216 199 149 119 66 39 13 17 16 13 20 17 15 3 8 43 81 11 340 8 17 59 55 81 90 118 168 186 177 181 194 173 194 207 215 170 132 170 255 156 59 39 62 52 22 345 345 1 343 167 141 147 157
160 151 166 163 154 142 132 114 30 311 233 215 212 207 201 200 208 210 215 225 234 252 273 288 310 317 318 321 318 328 332 332 334 263 224 191 168 142 115 70 42 27 28 26 23 30 37 345 337 12 43 54 352 341 20 7 63 83 109 93 179 200 197 189 181 191 184 179 179 183 153 147 177 174 139 175 328 34 99 346 351 353 328 287 138 133 151 158
163 157 168 159 152 152 156 142 75 349 282 232 213 204 200 201 207 213 219 228 240 256 283 298 310 315 317 320 323 331 336 350 360 269 200 174 161 142 111 69 41 36 31 24 18 19 25 302 325 33 47 51 358 356 32 12 41 123 110 85 225 213 217 217 188 201 221 167 146 161 156 161 210 165 148 181 177 229 200 212 204 248 238 216 218 145 147 156
170 166 166 151 150 158 155 154 138 325 288 247 201 178 192 197 193 208 224 229 251 272 290 308 311 314 316 321 329 331 348 31 336 220 170 169 159 143 111 67 38 33 26 24 22 14 15 2 47 57 59 47 340 15 46 356 26 96 101 146 213 177 169 221 197 210 212 155 144 139 118 151 237 179 154 145 140 266 244 215 195 206 204 192 210 173 150 154
174 165 163 154 143 150 146 159 174 197 212 200 178 167 171 176 181 193 217 235 264 288 301 312 309 315 318 324 332 331 10 58 246 198 163 168 159 150 118 63 32 24 21 23 21 24 38 50 59 48 52 47 347 27 30 318 69 66 42 193 196 144 133 222 199 192 149 122 108 116 140 171 189 143 155 152 172 233 234 228 215 204 186 176 181 169 152 152
179 170 168 170 148 149 145 135 127 325 190 173 163 157 159 166 160 172 213 276 291 301 308 308 312 318 321 328 333 344 62 92 262 184 172 172 162 161 137 55 27 16 8 20 16 36 48 34 53 51 45 52 10 54 333 313 52 94 331 292 217 187 182 207 189 190 141 114 126 157 180 131 113 280 191 173 209 229 256 261 225 193 165 159 154 157 154 154
192 180 180 188 169 170 160 100 49 24 20 24 116 135 157 156 123 160 211 311 294 305 310 309 318 318 330 337 339 27 86 250 259 178 182 176 172 176 162 4 24 9 356 28 26 59 71 41 65 110 75 65 134 107 333 322 39 90 142 307 242 204 205 196 154 175 138 137 183 170 118 135 173 224 130 208 239 261 324 329 145 139 140 144 143 155 162 162
212 205 203 207 204 202 208 235 29 23 13 358 6 59 137 139 113 137 182 281 285 307 303 314 317 324 344 348 53 32 6 259 215 177 185 182 183 187 191 299 10 359 23 45 34 118 98 54 103 145 85 84 169 126 336 345 32 71 148 240 245 226 256 224 99 142 149 147 163 121 141 215 193 178 253 239 241 59 55 78 107 120 125 139 148 159 162 162
215 220 225 224 230 230 226 254 322 349 14 359 343 354 355 63 114 119 182 241 232 281 304 326 315 333 354 40 87 47 279 255 191 182 185 188 189 195 213 297 360 356 61 51 42 113 111 103 183 179 151 174 133 113 348 45 4 164 153 201 212 323 311 309 160 216 195 170 119 132 224 268 239 209 274 244 202 142 100 93 107 122 129 148 157 170 168 165
220 227 239 233 234 243 235 256 284 314 348 341 327 336 335 336 146 182 205 214 203 261 320 328 319 349 6 70 87 104 269 288 201 188 184 191 191 200 221 293 335 350 73 57 48 76 101 167 182 152 141 131 96 82 16 103 155 161 142 172 137 321 302 184 201 249 222 240 177 174 227 275 329 271 252 249 171 148 112 109 128 134 151 172 169 181 176 177
249 269 280 263 262 267 251 255 269 293 320 322 327 333 330 325 309 271 235 201 178 181 316 323 338 356 6 78 109 190 268 309 204 190 187 192 191 209 226 288 316 7 67 65 66 68 89 158 151 126 124 108 98 31 1 133 114 109 131 194 334 339 299 200 231 262 165 236 187 166 217 280 357 240 232 232 167 154 134 143 166 158 176 185 181 190 182 188
267 286 296 290 291 296 290 278 277 284 288 302 314 319 327 316 305 285 248 200 171 174 176 6 357 355 42 64 145 217 259 294 208 193 191 193 192 214 231 297 321 34 4 67 79 73 72 142 120 96 349 137 122 25 81 129 88 76 68 287 308 356 333 257 250 228 169 196 183 149 287 282 223 222 247 233 158 139 137 162 185 186 197 198 194 195 191 197
268 281 291 294 299 304 305 301 303 305 302 309 318 319 325 310 296 262 247 215 175 171 161 142 318 88 81 18 229 228 243 248 217 201 196 195 195 212 230 245 221 49 53 91 91 75 61 60 107 102 114 110 128 190 103 52 50 21 49 45 313 1 333 278 39 152 161 175 182 153 279 268 242 243 259 173 154 135 150 188 200 201 206 205 204 199 204 203
266 276 284 292 295 300 302 301 306 312 313 318 328 327 316 307 272 236 232 211 180 169 156 141 151 107 96 253 254 248 245 238 221 208 199 200 194 194 204 181 156 89 74 88 84 63 53 69 92 94 96 90 130 113 44 12 23 33 27 39 2 360 282 289 10 133 153 182 159 136 239 268 267 269 259 181 168 156 180 206 206 211 212 208 210 207 214 211
260 266 275 286 292 298 301 301 302 309 315 317 323 320 313 298 244 229 213 190 162 150 142 138 149 111 75 280 275 278 250 233 216 204 196 196 186 175 178 149 130 116 87 78 84 68 59 87 82 73 20 17 59 72 28 354 13 36 325 310 345 181 270 303 291 161 157 273 43 134 221 275 273 279 277 178 175 175 194 212 212 218 216 211 216 212 219 225
258 260 267 277 288 298 304 308 305 306 309 296 302 309 303 253 203 188 182 157 132 125 104 113 136 111 97 276 293 292 244 217 206 198 191 185 177 162 150 138 104 99 96 79 94 81 55 61 61 56 139 49 69 83 47 10 344 359 87 246 267 175 274 315 308 222 179 114 340 195 230 279 277 296 323 164 176 189 209 226 222 222 221 215 218 216 218 224
255 258 263 267 278 290 301 308 308 308 293 240 248 241 143 142 165 160 144 123 113 103 89 120 135 99 255 265 280 272 223 192 193 189 185 177 173 164 146 128 82 90 88 71 84 70 33 40 40 333 46 55 91 95 57 336 291 316 9 238 241 194 207 296 308 284 140 129 219 224 233 252 260 292 357 178 182 188 217 232 227 224 225 222 218 219 219 215
250 253 257 260 268 280 294 302 305 307 268 220 183 135 116 104 122 139 136 123 103 79 64 94 101 74 268 251 219 226 164 168 177 175 175 172 170 163 143 116 100 95 65 42 44 39 17 24 54 46 21 17 80 103 142 226 210 198 197 205 262 255 213 248 284 254 145 147 224 198 236 256 265 272 225 202 191 191 220 232 231 230 226 226 222 218 218 215
248 249 249 255 262 270 281 286 299 298 235 200 144 126 108 88 92 125 137 131 119 106 169 215 152 148 230 245 194 111 112 142 158 167 168 163 161 148 120 95 93 92 82 72 334 16 70 49 63 95 237 221 187 170 192 206 170 163 176 161 209 251 256 231 251 257 185 160 233 213 228 248 260 268 250 213 192 203 233 242 241 236 227 226 224 221 216 217
247 245 244 250 255 264 269 271 291 280 220 188 149 128 109 88 57 27 186 195 210 176 162 207 191 171 231 293 131 115 115 120 134 168 166 161 152 132 91 57 62 63 110 163 209 8 99 118 170 209 215 202 198 200 193 167 138 128 133 147 208 224 268 253 248 284 212 161 244 224 228 250 251 262 262 214 175 216 238 243 242 233 227 225 222 221 216 218
245 242 241 242 246 258 258 261 280 267 228 195 165 147 166 160 127 235 220 249 254 239 243 251 214 231 285 188 160 141 122 87 21 166 166 164 150 142 129 53 96 100 237 171 154 42 84 143 220 228 214 195 197 200 170 131 123 98 128 190 263 222 252 258 238 293 272 171 262 244 234 258 252 255 264 204 170 222 227 228 237 231 227 228 223 223 216 209
244 240 237 234 236 248 251 254 265 249 225 205 190 203 254 180 137 139 144 252 267 241 228 258 328 286 269 192 180 162 85 83 312 218 176 162 153 171 183 96 146 186 215 138 113 53 78 214 238 232 173 131 150 175 159 153 154 119 125 171 264 247 274 281 272 315 27 178 268 291 260 266 260 251 255 233 212 229 226 222 232 228 226 228 221 220 210 196
243 238 232 228 228 234 241 245 246 230 218 211 207 211 237 172 132 86 110 100 290 252 210 213 229 239 235 235 195 179 138 159 185 223 187 161 154 184 148 133 163 150 150 174 157 152 178 245 245 207 134 134 134 126 133 131 198 199 171 171 244 249 269 278 291 326 333 196 271 305 297 276 268 257 248 241 232 244 244 233 239 234 229 231 221 214 206 197
242 237 230 223 218 217 224 233 227 222 225 229 229 217 177 138 144 122 118 358 295 276 224 207 207 203 200 208 185 179 198 188 170 198 185 163 137 158 160 156 144 130 185 198 180 183 217 248 235 137 150 169 151 119 136 151 240 243 204 195 219 227 217 231 287 329 336 344 4 338 308 276 264 258 250 258 268 267 258 244 250 245 236 239 231 218 209 200
239 235 228 217 211 202 199 210 214 221 228 237 237 221 175 142 149 140 115 4 286 288 289 214 204 209 200 180 169 170 173 230 208 187 179 169 150 143 177 158 129 176 204 197 191 231 249 242 114 116 156 166 154 159 170 171 208 272 229 204 213 219 225 239 322 4 356 323 345 23 308 274 279 269 255 285 322 272 255 240 246 247 237 233 232 223 207 197
237 233 225 215 206 190 182 204 217 216 222 239 238 210 174 158 148 138 104 33 282 270 251 189 181 194 191 165 153 139 86 250 228 165 169 176 170 135 151 161 95 197 191 166 198 248 245 222 126 126 148 157 168 204 213 179 165 267 244 205 210 209 216 230 200 75 260 263 293 67 231 271 300 285 251 253 267 262 259 250 249 250 238 225 229 223 201 191
235 230 222 213 204 188 178 198 202 188 199 252 236 188 173 163 145 135 91 16 279 209 147 202 190 169 178 166 152 136 190 232 129 147 167 176 182 108 143 180 129 195 173 124 237 252 187 191 144 127 128 147 174 216 217 171 149 240 249 182 186 189 200 207 179 191 231 265 312 17 161 270 287 276 263 249 257 270 270 261 257 251 237 229 231 221 203 194
232 227 220 212 206 198 194 183 177 181 195 259 201 178 171 161 152 125 93 254 276 139 136 236 166 141 140 160 157 143 235 198 122 184 171 157 181 81 170 201 176 185 176 146 217 267 153 180 186 166 152 173 196 210 182 157 160 245 215 135 149 162 170 161 146 192 286 12 298 288 128 264 268 265 316 342 251 267 268 260 260 254 239 230 230 222 206 197
232 226 221 213 207 206 206 196 182 199 213 210 170 175 169 162 161 82 82 206 261 102 142 130 132 125 70 141 171 139 24 42 133 227 60 136 182 61 179 201 158 170 197 193 215 264 148 196 192 166 173 199 202 215 171 163 186 210 130 97 76 80 82 82 112 133 45 344 252 240 162 241 267 236 266 4 225 251 262 261 263 261 247 232 227 221 205 193
234 226 220 209 202 201 200 207 215 213 210 194 174 173 165 161 150 111 174 218 233 194 193 127 164 172 135 148 191 316 86 32 8 102 56 120 113 33 161 156 95 134 230 285 249 251 301 266 192 160 182 185 137 77 165 165 160 135 106 69 47 36 42 45 56 82 28 273 243 221 187 200 266 253 197 212 211 227 247 265 278 284 273 246 228 215 198 187
241 230 218 204 199 196 190 206 217 211 206 189 169 163 161 139 76 175 198 228 323 191 139 155 168 137 152 164 181 190 139 28 139 150 147 166 107 56 99 120 78 87 335 288 274 305 333 329 242 217 167 129 100 70 23 69 119 113 90 80 65 349 9 20 358 47 237 258 247 231 191 188 239 260 229 241 250 238 231 245 266 275 274 256 231 213 193 184
248 236 221 208 203 199 197 208 209 206 209 172 157 158 170 153 149 226 219 41 300 205 165 178 187 163 168 173 180 175 150 113 184 169 161 158 167 181 195 189 162 123 242 238 244 336 280 232 258 309 194 146 115 91 31 28 89 105 103 108 104 325 350 346 312 63 231 259 276 350 120 199 240 252 250 258 262 254 235 228 240 253 262 258 231 209 190 180
253 244 223 211 206 203 205 212 205 200 194 164 155 166 197 166 196 214 209 201 221 211 143 137 136 155 160 163 187 168 129 173 183 175 163 149 177 207 226 223 187 160 193 199 187 205 264 291 284 184 249 186 157 161 169 170 174 160 147 143 143 152 256 270 270 274 263 271 294 3 158 246 267 257 238 238 245 252 250 237 234 238 247 252 230 198 188 186
254 248 226 211 208 208 208 208 201 192 181 161 153 177 179 192 206 197 206 221 226 35 45 107 104 126 153 169 201 166 151 219 178 150 149 148 173 214 229 238 216 164 98 146 177 184 216 277 213 180 204 186 183 190 166 136 160 185 153 141 161 161 171 218 221 233 260 286 300 288 200 202 208 249 240 235 251 269 272 265 253 248 247 247 228 191 188 193
252 251 233 214 209 210 207 203 196 183 170 157 159 182 188 204 207 195 211 220 211 44 27 74 96 119 183 251 263 182 170 221 177 152 164 171 191 205 198 211 204 172 138 179 214 167 201 262 242 210 185 170 182 193 119 108 138 225 118 120 190 183 170 215 209 179 194 303 293 231 222 217 210 268 268 253 270 272 269 278 271 264 261 220 207 200 194 197
252 259 241 216 210 211 205 201 191 176 166 158 175 191 202 211 201 191 204 198 186 134 105 92 84 128 195 210 231 210 184 123 157 160 199 200 216 211 200 213 198 186 187 186 194 151 174 277 286 3 17 174 183 172 126 136 177 167 138 175 207 170 150 199 267 61 80 274 268 199 239 285 313 282 269 243 255 265 273 273 258 261 268 211 218 208 200 202
253 261 240 219 215 210 204 199 185 174 169 169 186 199 209 219 206 175 184 174 161 142 136 175 186 160 188 192 200 205 184 125 159 173 194 194 232 216 207 229 197 194 201 185 184 198 168 256 293 98 172 259 244 118 71 19 125 128 178 199 161 85 99 127 253 346 42 258 272 218 238 275 273 272 302 181 236 255 261 255 255 267 255 231 232 211 205 207
256 245 240 233 222 209 203 195 179 172 180 180 196 213 212 223 216 182 176 144 133 150 174 207 202 167 179 190 197 189 176 171 178 186 186 181 240 214 192 211 207 200 205 183 191 242 164 222 300 73 184 286 359 108 69 356 63 130 182 182 124 131 209 121 176 236 208 251 284 285 259 251 207 227 293 194 217 236 250 255 263 264 247 237 231 209 206 202
266 239 247 238 224 209 199 188 173 172 205 185 198 216 211 224 223 194 180 169 156 172 195 212 205 172 179 183 172 171 183 187 174 180 190 185 231 216 183 194 211 203 200 183 192 233 143 199 264 341 238 310 10 156 181 227 27 60 109 146 111 153 176 162 166 174 173 233 285 312 300 249 212 205 200 215 221 218 235 252 254 252 250 243 219 203 206 200
263 242 254 224 213 202 189 180 174 190 213 194 200 210 214 225 217 204 220 209 176 186 204 213 200 179 185 185 172 169 191 199 178 183 205 193 218 244 193 188 181 172 181 183 196 200 129 209 234 331 342 177 197 215 191 179 168 153 158 170 182 105 104 163 200 133 137 174 227 289 288 264 227 194 195 212 218 207 217 232 238 250 259 244 199 198 206 205
226 242 259 185 189 184 176 174 191 204 205 206 211 217 226 235 184 206 222 218 239 241 208 212 204 193 185 184 191 184 180 193 187 189 218 206 210 239 206 177 155 136 140 167 204 208 187 198 181 158 242 206 222 254 212 190 182 177 184 188 185 171 145 170 239 204 133 180 186 195 275 271 236 186 201 206 206 207 215 220 237 263 268 237 206 200 202 204
223 242 239 175 177 171 163 186 208 196 208 209 214 219 221 257 181 203 212 214 254 288 274 221 206 199 191 183 194 184 166 183 190 190 221 218 210 221 212 179 159 152 151 171 204 203 155 118 168 194 223 220 240 283 245 195 164 148 194 198 177 172 166 173 213 215 163 223 184 127 275 276 241 184 210 214 215 226 228 213 230 272 277 252 226 204 200 206
237 253 269 176 175 168 159 229 197 199 222 209 223 230 207 266 232 172 194 203 216 240 241 246 204 200 207 186 172 173 175 190 193 196 217 226 221 217 190 176 161 156 163 181 201 194 105 119 196 240 315 313 310 329 10 89 110 127 239 172 160 190 194 178 195 183 165 212 182 125 259 262 266 245 236 246 263 261 255 227 220 257 276 261 234 209 194 200
245 256 314 189 181 173 166 221 199 206 212 206 219 218 216 255 229 181 194 197 201 208 213 231 219 209 211 173 155 179 188 193 200 206 211 219 230 207 170 174 171 168 182 188 176 173 171 184 187 188 281 316 327 314 287 216 174 193 217 191 190 198 190 166 88 125 203 219 181 175 247 241 249 313 287 287 291 274 260 248 222 237 263 262 237 209 192 194
268 236 268 210 199 190 191 211 207 211 205 203 210 203 207 233 223 216 216 203 207 214 217 231 212 183 200 164 157 180 192 202 209 208 211 221 248 224 178 182 181 188 205 195 171 170 176 185 182 189 217 229 228 229 220 186 153 188 210 199 205 198 185 192 202 187 233 223 171 194 242 241 350 306 268 252 268 265 259 257 239 237 252 256 230 206 195 189
262 239 203 199 215 221 225 210 205 216 208 201 207 203 205 214 217 217 217 215 214 210 228 262 196 143 187 197 198 194 201 216 219 201 205 213 223 274 191 183 188 204 211 186 167 163 147 186 194 198 214 224 230 231 154 130 144 203 210 197 202 203 193 196 207 214 222 191 178 221 234 244 255 236 233 244 232 237 256 260 254 248 249 247 225 205 198 192
234 236 212 197 208 224 235 227 209 206 198 194 192 188 201 214 224 212 203 216 216 201 215 237 211 197 199 196 210 217 207 218 226 218 215 207 198 325 220 177 199 212 206 184 174 151 119 203 205 208 221 230 236 221 148 147 171 199 204 197 201 203 194 195 214 221 198 138 237 236 218 239 252 229 215 238 229 230 250 243 242 246 240 233 207 184 191 195
231 240 228 232 230 214 226 232 220 212 202 195 190 190 201 209 213 203 197 214 220 207 206 221 218 216 211 202 208 216 208 212 225 226 226 213 165 112 75 173 219 210 186 185 195 153 157 211 207 212 226 236 241 216 164 171 187 195 199 200 200 197 193 200 217 222 196 184 241 240 184 218 249 242 226 227 211 221 236 231 227 226 212 204 185 185 199 197
225 256 264 264 267 240 236 255 248 232 214 200 198 208 209 210 211 210 203 206 219 212 203 217 221 216 215 211 205 208 208 205 215 222 219 211 180 154 171 208 230 187 161 182 200 161 185 212 205 209 223 237 242 225 179 185 201 201 201 202 199 196 197 206 218 222 212 215 242 248 226 235 250 247 228 211 202 224 237 189 180 207 209 200 190 204 213 204
218 253 268 264 271 265 270 272 269 264 233 209 210 209 205 210 213 212 207 198 204 204 201 216 224 216 213 213 210 217 216 206 216 221 206 201 204 184 189 198 171 137 171 193 203 182 204 213 197 195 217 238 244 236 206 198 212 221 218 210 207 206 206 210 217 220 217 227 242 248 254 258 256 229 213 201 187 215 237 209 218 222 216 204 201 215 220 213
245 264 277 351 258 240 255 254 237 251 249 215 219 216 206 212 212 209 210 206 203 201 198 212 224 222 215 213 213 226 228 218 225 227 196 193 209 200 204 204 170 167 186 192 185 172 195 213 148 143 207 238 242 239 225 207 217 236 237 225 217 215 213 213 216 215 211 219 235 243 252 257 249 176 189 196 171 195 224 225 230 234 218 207 211 219 220 219
244 259 246 208 256 225 225 261 246 239 243 210 208 222 221 222 218 213 219 214 209 211 205 213 223 223 214 214 214 222 228 225 230 235 191 192 207 185 186 194 163 169 180 184 186 167 176 196 189 171 210 241 242 224 197 166 188 239 237 228 222 218 215 214 220 222 214 210 222 227 233 245 247 212 200 216 194 208 225 223 223 232 224 213 217 222 223 224